Year,Month,Day,Hour,Minute,Value (Times are PST for temperature in C)
2014,07,11,00,00,16.70
2014,07,11,00,01,16.70
2014,07,11,00,02,16.70
2014,07,11,00,03,16.70
2014,07,11,00,04,16.70
2014,07,11,00,05,16.70
2014,07,11,00,06,16.70
2014,07,11,00,07,16.70
2014,07,11,00,08,16.70
2014,07,11,00,09,16.70
2014,07,11,00,10,16.70
2014,07,11,00,11,16.70
2014,07,11,00,12,16.70
2014,07,11,00,13,16.70
2014,07,11,00,14,16.70
2014,07,11,00,15,16.70
2014,07,11,00,16,16.70
2014,07,11,00,17,16.70
2014,07,11,00,18,16.70
2014,07,11,00,19,16.70
2014,07,11,00,20,16.70
2014,07,11,00,21,16.70
2014,07,11,00,22,16.70
2014,07,11,00,23,16.70
2014,07,11,00,24,16.70
2014,07,11,00,25,16.70
2014,07,11,00,26,16.70
2014,07,11,00,27,16.70
2014,07,11,00,28,16.70
2014,07,11,00,29,16.60
2014,07,11,00,30,16.60
2014,07,11,00,31,16.60
2014,07,11,00,32,16.60
2014,07,11,00,33,16.60
2014,07,11,00,34,16.50
2014,07,11,00,35,16.50
2014,07,11,00,36,16.50
2014,07,11,00,37,16.50
2014,07,11,00,38,16.50
2014,07,11,00,39,16.50
2014,07,11,00,40,16.40
2014,07,11,00,41,16.40
2014,07,11,00,42,16.40
2014,07,11,00,43,16.40
2014,07,11,00,44,16.40
2014,07,11,00,45,16.40
2014,07,11,00,46,16.50
2014,07,11,00,47,16.50
2014,07,11,00,48,16.50
2014,07,11,00,49,16.50
2014,07,11,00,50,16.50
2014,07,11,00,51,16.50
2014,07,11,00,52,16.60
2014,07,11,00,53,16.60
2014,07,11,00,54,16.60
2014,07,11,00,55,16.60
2014,07,11,00,56,16.60
2014,07,11,00,57,16.60
2014,07,11,00,58,16.60
2014,07,11,00,59,16.60
2014,07,11,01,00,16.60
2014,07,11,01,01,16.60
2014,07,11,01,02,16.50
2014,07,11,01,03,16.50
2014,07,11,01,04,16.40
2014,07,11,01,05,16.40
2014,07,11,01,06,16.40
2014,07,11,01,07,16.40
2014,07,11,01,08,16.40
2014,07,11,01,09,16.50
2014,07,11,01,10,16.60
2014,07,11,01,11,16.60
2014,07,11,01,12,16.70
2014,07,11,01,13,16.70
2014,07,11,01,14,16.80
2014,07,11,01,15,16.80
2014,07,11,01,16,16.80
2014,07,11,01,17,16.80
2014,07,11,01,18,16.80
2014,07,11,01,19,16.80
2014,07,11,01,20,16.80
2014,07,11,01,21,16.80
2014,07,11,01,22,16.80
2014,07,11,01,23,16.80
2014,07,11,01,24,16.80
2014,07,11,01,25,16.80
2014,07,11,01,26,16.80
2014,07,11,01,27,16.80
2014,07,11,01,28,16.80
2014,07,11,01,29,16.90
2014,07,11,01,30,16.90
2014,07,11,01,31,16.90
2014,07,11,01,32,16.90
2014,07,11,01,33,16.90
2014,07,11,01,34,16.90
2014,07,11,01,35,16.90
2014,07,11,01,36,17.00
2014,07,11,01,37,17.00
2014,07,11,01,38,17.00
2014,07,11,01,39,17.00
2014,07,11,01,40,17.00
2014,07,11,01,41,17.00
2014,07,11,01,42,17.00
2014,07,11,01,43,17.00
2014,07,11,01,44,16.90
2014,07,11,01,45,16.90
2014,07,11,01,46,16.90
2014,07,11,01,47,16.90
2014,07,11,01,48,16.90
2014,07,11,01,49,16.80
2014,07,11,01,50,16.80
2014,07,11,01,51,16.80
2014,07,11,01,52,16.80
2014,07,11,01,53,16.80
2014,07,11,01,54,16.80
2014,07,11,01,55,16.80
2014,07,11,01,56,16.80
2014,07,11,01,57,16.70
2014,07,11,01,58,16.70
2014,07,11,01,59,16.70
2014,07,11,02,00,16.70
2014,07,11,02,01,16.70
2014,07,11,02,02,16.70
2014,07,11,02,03,16.70
2014,07,11,02,04,16.70
2014,07,11,02,05,16.70
2014,07,11,02,06,16.70
2014,07,11,02,07,16.60
2014,07,11,02,08,16.60
2014,07,11,02,09,16.60
2014,07,11,02,10,16.60
2014,07,11,02,11,16.60
2014,07,11,02,12,16.60
2014,07,11,02,13,16.60
2014,07,11,02,14,16.50
2014,07,11,02,15,16.50
2014,07,11,02,16,16.50
2014,07,11,02,17,16.50
2014,07,11,02,18,16.40
2014,07,11,02,19,16.40
2014,07,11,02,20,16.40
2014,07,11,02,21,16.40
2014,07,11,02,22,16.40
2014,07,11,02,23,16.30
2014,07,11,02,24,16.30
2014,07,11,02,25,16.30
2014,07,11,02,26,16.30
2014,07,11,02,27,16.30
2014,07,11,02,28,16.20
2014,07,11,02,29,16.20
2014,07,11,02,30,16.20
2014,07,11,02,31,16.20
2014,07,11,02,32,16.20
2014,07,11,02,33,16.20
2014,07,11,02,34,16.20
2014,07,11,02,35,16.10
2014,07,11,02,36,16.10
2014,07,11,02,37,16.10
2014,07,11,02,38,16.10
2014,07,11,02,39,16.10
2014,07,11,02,40,16.10
2014,07,11,02,41,16.10
2014,07,11,02,42,16.10
2014,07,11,02,43,16.10
2014,07,11,02,44,16.10
2014,07,11,02,45,16.00
2014,07,11,02,46,16.00
2014,07,11,02,47,16.00
2014,07,11,02,48,15.90
2014,07,11,02,49,15.90
2014,07,11,02,50,15.90
2014,07,11,02,51,15.90
2014,07,11,02,52,15.90
2014,07,11,02,53,15.90
2014,07,11,02,54,15.90
2014,07,11,02,55,15.90
2014,07,11,02,56,15.90
2014,07,11,02,57,15.90
2014,07,11,02,58,15.90
2014,07,11,02,59,15.90
2014,07,11,03,00,15.90
2014,07,11,03,01,15.90
2014,07,11,03,02,15.80
2014,07,11,03,03,15.80
2014,07,11,03,04,15.80
2014,07,11,03,05,15.80
2014,07,11,03,06,15.80
2014,07,11,03,07,15.80
2014,07,11,03,08,15.80
2014,07,11,03,09,15.70
2014,07,11,03,10,15.70
2014,07,11,03,11,15.70
2014,07,11,03,12,15.70
2014,07,11,03,13,15.70
2014,07,11,03,14,15.70
2014,07,11,03,15,15.70
2014,07,11,03,16,15.60
2014,07,11,03,17,15.60
2014,07,11,03,18,15.60
2014,07,11,03,19,15.60
2014,07,11,03,20,15.60
2014,07,11,03,21,15.60
2014,07,11,03,22,15.60
2014,07,11,03,23,15.60
2014,07,11,03,24,15.60
2014,07,11,03,25,15.60
2014,07,11,03,26,15.60
2014,07,11,03,27,15.60
2014,07,11,03,28,15.60
2014,07,11,03,29,15.60
2014,07,11,03,30,15.60
2014,07,11,03,31,15.60
2014,07,11,03,32,15.60
2014,07,11,03,33,15.70
2014,07,11,03,34,15.80
2014,07,11,03,35,15.80
2014,07,11,03,36,15.80
2014,07,11,03,37,15.80
2014,07,11,03,38,15.90
2014,07,11,03,39,15.90
2014,07,11,03,40,15.90
2014,07,11,03,41,15.80
2014,07,11,03,42,15.80
2014,07,11,03,43,15.80
2014,07,11,03,44,15.80
2014,07,11,03,45,15.80
2014,07,11,03,46,15.80
2014,07,11,03,47,15.80
2014,07,11,03,48,15.80
2014,07,11,03,49,15.80
2014,07,11,03,50,15.90
2014,07,11,03,51,15.90
2014,07,11,03,52,16.00
2014,07,11,03,53,16.00
2014,07,11,03,54,16.10
2014,07,11,03,55,16.10
2014,07,11,03,56,16.10
2014,07,11,03,57,16.20
2014,07,11,03,58,16.20
2014,07,11,03,59,16.20
2014,07,11,04,00,16.30
2014,07,11,04,01,16.30
2014,07,11,04,02,16.30
2014,07,11,04,03,16.30
2014,07,11,04,04,16.30
2014,07,11,04,05,16.30
2014,07,11,04,06,16.30
2014,07,11,04,07,16.30
2014,07,11,04,08,16.30
2014,07,11,04,09,16.30
2014,07,11,04,10,16.30
2014,07,11,04,11,16.30
2014,07,11,04,12,16.30
2014,07,11,04,13,16.30
2014,07,11,04,14,16.30
2014,07,11,04,15,16.20
2014,07,11,04,16,16.20
2014,07,11,04,17,16.20
2014,07,11,04,18,16.20
2014,07,11,04,19,16.20
2014,07,11,04,20,16.20
2014,07,11,04,21,16.20
2014,07,11,04,22,16.20
2014,07,11,04,23,16.20
2014,07,11,04,24,16.20
2014,07,11,04,25,16.20
2014,07,11,04,26,16.20
2014,07,11,04,27,16.10
2014,07,11,04,28,16.10
2014,07,11,04,29,16.10
2014,07,11,04,30,16.10
2014,07,11,04,31,16.10
2014,07,11,04,32,16.10
2014,07,11,04,33,16.10
2014,07,11,04,34,16.10
2014,07,11,04,35,16.00
2014,07,11,04,36,16.00
2014,07,11,04,37,16.00
2014,07,11,04,38,16.00
2014,07,11,04,39,15.90
2014,07,11,04,40,15.90
2014,07,11,04,41,15.90
2014,07,11,04,42,15.90
2014,07,11,04,43,15.90
2014,07,11,04,44,15.90
2014,07,11,04,45,15.80
2014,07,11,04,46,15.80
2014,07,11,04,47,15.80
2014,07,11,04,48,15.80
2014,07,11,04,49,15.80
2014,07,11,04,50,15.80
2014,07,11,04,51,15.80
2014,07,11,04,52,15.80
2014,07,11,04,53,15.80
2014,07,11,04,54,15.80
2014,07,11,04,55,15.70
2014,07,11,04,56,15.70
2014,07,11,04,57,15.70
2014,07,11,04,58,15.70
2014,07,11,04,59,15.70
2014,07,11,05,00,15.70
2014,07,11,05,01,15.70
2014,07,11,05,02,15.60
2014,07,11,05,03,15.60
2014,07,11,05,04,15.60
2014,07,11,05,05,15.60
2014,07,11,05,06,15.60
2014,07,11,05,07,15.60
2014,07,11,05,08,15.60
2014,07,11,05,09,15.60
2014,07,11,05,10,15.60
2014,07,11,05,11,15.60
2014,07,11,05,12,15.60
2014,07,11,05,13,15.60
2014,07,11,05,14,15.50
2014,07,11,05,15,15.50
2014,07,11,05,16,15.50
2014,07,11,05,17,15.50
2014,07,11,05,18,15.50
2014,07,11,05,19,15.50
2014,07,11,05,20,15.40
2014,07,11,05,21,15.50
2014,07,11,05,22,15.40
2014,07,11,05,23,15.40
2014,07,11,05,24,15.40
2014,07,11,05,25,15.40
2014,07,11,05,26,15.40
2014,07,11,05,27,15.40
2014,07,11,05,28,15.40
2014,07,11,05,29,15.40
2014,07,11,05,30,15.40
2014,07,11,05,31,15.40
2014,07,11,05,32,15.30
2014,07,11,05,33,15.30
2014,07,11,05,34,15.30
2014,07,11,05,35,15.30
2014,07,11,05,36,15.30
2014,07,11,05,37,15.30
2014,07,11,05,38,15.30
2014,07,11,05,39,15.30
2014,07,11,05,40,15.30
2014,07,11,05,41,15.30
2014,07,11,05,42,15.30
2014,07,11,05,43,15.30
2014,07,11,05,44,15.30
2014,07,11,05,45,15.30
2014,07,11,05,46,15.30
2014,07,11,05,47,15.30
2014,07,11,05,48,15.30
2014,07,11,05,49,15.30
2014,07,11,05,50,15.30
2014,07,11,05,51,15.30
2014,07,11,05,52,15.30
2014,07,11,05,53,15.30
2014,07,11,05,54,15.30
2014,07,11,05,55,15.30
2014,07,11,05,56,15.30
2014,07,11,05,57,15.20
2014,07,11,05,58,15.20
2014,07,11,05,59,15.20
2014,07,11,06,00,15.20
2014,07,11,06,01,15.20
2014,07,11,06,02,15.20
2014,07,11,06,03,15.20
2014,07,11,06,04,15.20
2014,07,11,06,05,15.20
2014,07,11,06,06,15.20
2014,07,11,06,07,15.20
2014,07,11,06,08,15.20
2014,07,11,06,09,15.30
2014,07,11,06,10,15.30
2014,07,11,06,11,15.30
2014,07,11,06,12,15.30
2014,07,11,06,13,15.30
2014,07,11,06,14,15.30
2014,07,11,06,15,15.30
2014,07,11,06,16,15.30
2014,07,11,06,17,15.30
2014,07,11,06,18,15.30
2014,07,11,06,19,15.30
2014,07,11,06,20,15.30
2014,07,11,06,21,15.30
2014,07,11,06,22,15.40
2014,07,11,06,23,15.40
2014,07,11,06,24,15.40
2014,07,11,06,25,15.40
2014,07,11,06,26,15.40
2014,07,11,06,27,15.40
2014,07,11,06,28,15.40
2014,07,11,06,29,15.40
2014,07,11,06,30,15.40
2014,07,11,06,31,15.40
2014,07,11,06,32,15.40
2014,07,11,06,33,15.40
2014,07,11,06,34,15.40
2014,07,11,06,35,15.40
2014,07,11,06,36,15.40
2014,07,11,06,37,15.40
2014,07,11,06,38,15.50
2014,07,11,06,39,15.50
2014,07,11,06,40,15.50
2014,07,11,06,41,15.50
2014,07,11,06,42,15.60
2014,07,11,06,43,15.60
2014,07,11,06,44,15.60
2014,07,11,06,45,15.60
2014,07,11,06,46,15.60
2014,07,11,06,47,15.60
2014,07,11,06,48,15.60
2014,07,11,06,49,15.70
2014,07,11,06,50,15.70
2014,07,11,06,51,15.70
2014,07,11,06,52,15.70
2014,07,11,06,53,15.70
2014,07,11,06,54,15.70
2014,07,11,06,55,15.70
2014,07,11,06,56,15.70
2014,07,11,06,57,15.80
2014,07,11,06,58,15.80
2014,07,11,06,59,15.80
2014,07,11,07,00,15.80
2014,07,11,07,01,15.80
2014,07,11,07,02,15.90
2014,07,11,07,03,15.90
2014,07,11,07,04,15.90
2014,07,11,07,05,15.90
2014,07,11,07,06,16.00
2014,07,11,07,07,16.00
2014,07,11,07,08,16.00
2014,07,11,07,09,16.10
2014,07,11,07,10,16.10
2014,07,11,07,11,16.10
2014,07,11,07,12,16.10
2014,07,11,07,13,16.10
2014,07,11,07,14,16.20
2014,07,11,07,15,16.20
2014,07,11,07,16,16.20
2014,07,11,07,17,16.20
2014,07,11,07,18,16.30
2014,07,11,07,19,16.30
2014,07,11,07,20,16.30
2014,07,11,07,21,16.40
2014,07,11,07,22,16.40
2014,07,11,07,23,16.40
2014,07,11,07,24,16.40
2014,07,11,07,25,16.50
2014,07,11,07,26,16.50
2014,07,11,07,27,16.50
2014,07,11,07,28,16.60
2014,07,11,07,29,16.60
2014,07,11,07,30,16.60
2014,07,11,07,31,16.60
2014,07,11,07,32,16.60
2014,07,11,07,33,16.60
2014,07,11,07,34,16.70
2014,07,11,07,35,16.70
2014,07,11,07,36,16.70
2014,07,11,07,37,16.80
2014,07,11,07,38,16.80
2014,07,11,07,39,16.80
2014,07,11,07,40,16.80
2014,07,11,07,41,16.90
2014,07,11,07,42,16.90
2014,07,11,07,43,16.90
2014,07,11,07,44,17.00
2014,07,11,07,45,17.00
2014,07,11,07,46,17.10
2014,07,11,07,47,17.10
2014,07,11,07,48,17.10
2014,07,11,07,49,17.20
2014,07,11,07,50,17.20
2014,07,11,07,51,17.30
2014,07,11,07,52,17.30
2014,07,11,07,53,17.40
2014,07,11,07,54,17.40
2014,07,11,07,55,17.50
2014,07,11,07,56,17.50
2014,07,11,07,57,17.50
2014,07,11,07,58,17.60
2014,07,11,07,59,17.60
2014,07,11,08,00,17.70
2014,07,11,08,01,17.70
2014,07,11,08,02,17.80
2014,07,11,08,03,17.80
2014,07,11,08,04,17.90
2014,07,11,08,05,18.00
2014,07,11,08,06,18.00
2014,07,11,08,07,18.10
2014,07,11,08,08,18.20
2014,07,11,08,09,18.20
2014,07,11,08,10,18.30
2014,07,11,08,11,18.30
2014,07,11,08,12,18.40
2014,07,11,08,13,18.40
2014,07,11,08,14,18.50
2014,07,11,08,15,18.60
2014,07,11,08,16,18.60
2014,07,11,08,17,18.70
2014,07,11,08,18,18.80
2014,07,11,08,19,18.90
2014,07,11,08,20,18.90
2014,07,11,08,21,19.00
2014,07,11,08,22,19.00
2014,07,11,08,23,19.10
2014,07,11,08,24,19.10
2014,07,11,08,25,19.20
2014,07,11,08,26,19.20
2014,07,11,08,27,19.20
2014,07,11,08,28,19.30
2014,07,11,08,29,19.30
2014,07,11,08,30,19.30
2014,07,11,08,31,19.40
2014,07,11,08,32,19.40
2014,07,11,08,33,19.40
2014,07,11,08,34,19.50
2014,07,11,08,35,19.50
2014,07,11,08,36,19.60
2014,07,11,08,37,19.60
2014,07,11,08,38,19.60
2014,07,11,08,39,19.70
2014,07,11,08,40,19.70
2014,07,11,08,41,19.70
2014,07,11,08,42,19.80
2014,07,11,08,43,19.80
2014,07,11,08,44,19.80
2014,07,11,08,45,19.80
2014,07,11,08,46,19.90
2014,07,11,08,47,19.90
2014,07,11,08,48,19.90
2014,07,11,08,49,20.00
2014,07,11,08,50,20.00
2014,07,11,08,51,20.00
2014,07,11,08,52,20.10
2014,07,11,08,53,20.10
2014,07,11,08,54,20.10
2014,07,11,08,55,20.20
2014,07,11,08,56,20.20
2014,07,11,08,57,20.20
2014,07,11,08,58,20.30
2014,07,11,08,59,20.30
2014,07,11,09,00,20.30
2014,07,11,09,01,20.30
2014,07,11,09,02,20.40
2014,07,11,09,03,20.40
2014,07,11,09,04,20.50
2014,07,11,09,05,20.50
2014,07,11,09,06,20.50
2014,07,11,09,07,20.60
2014,07,11,09,08,20.60
2014,07,11,09,09,20.70
2014,07,11,09,10,20.70
2014,07,11,09,11,20.70
2014,07,11,09,12,20.70
2014,07,11,09,13,20.70
2014,07,11,09,14,20.70
2014,07,11,09,15,20.70
2014,07,11,09,16,20.70
2014,07,11,09,17,20.80
2014,07,11,09,18,20.80
2014,07,11,09,19,20.80
2014,07,11,09,20,20.80
2014,07,11,09,21,20.80
2014,07,11,09,22,20.90
2014,07,11,09,23,20.90
2014,07,11,09,24,20.90
2014,07,11,09,25,20.90
2014,07,11,09,26,21.00
2014,07,11,09,27,21.10
2014,07,11,09,28,21.10
2014,07,11,09,29,21.20
2014,07,11,09,30,21.20
2014,07,11,09,31,21.20
2014,07,11,09,32,21.20
2014,07,11,09,33,21.20
2014,07,11,09,34,21.20
2014,07,11,09,35,21.30
2014,07,11,09,36,21.30
2014,07,11,09,37,21.30
2014,07,11,09,38,21.40
2014,07,11,09,39,21.40
2014,07,11,09,40,21.40
2014,07,11,09,41,21.40
2014,07,11,09,42,21.40
2014,07,11,09,43,21.50
2014,07,11,09,44,21.50
2014,07,11,09,45,21.50
2014,07,11,09,46,21.60
2014,07,11,09,47,21.60
2014,07,11,09,48,21.60
2014,07,11,09,49,21.70
2014,07,11,09,50,21.70
2014,07,11,09,51,21.70
2014,07,11,09,52,21.80
2014,07,11,09,53,21.80
2014,07,11,09,54,21.90
2014,07,11,09,55,22.00
2014,07,11,09,56,22.00
2014,07,11,09,57,22.10
2014,07,11,09,58,22.20
2014,07,11,09,59,22.20
2014,07,11,10,00,22.20
2014,07,11,10,01,22.20
2014,07,11,10,02,22.20
2014,07,11,10,03,22.20
2014,07,11,10,04,22.30
2014,07,11,10,05,22.30
2014,07,11,10,06,22.40
2014,07,11,10,07,22.40
2014,07,11,10,08,22.40
2014,07,11,10,09,22.50
2014,07,11,10,10,22.50
2014,07,11,10,11,22.60
2014,07,11,10,12,22.60
2014,07,11,10,13,22.70
2014,07,11,10,14,22.70
2014,07,11,10,15,22.70
2014,07,11,10,16,22.70
2014,07,11,10,17,22.70
2014,07,11,10,18,22.80
2014,07,11,10,19,22.80
2014,07,11,10,20,22.80
2014,07,11,10,21,22.80
2014,07,11,10,22,22.80
2014,07,11,10,23,22.80
2014,07,11,10,24,22.90
2014,07,11,10,25,22.90
2014,07,11,10,26,22.90
2014,07,11,10,27,22.90
2014,07,11,10,28,23.00
2014,07,11,10,29,23.10
2014,07,11,10,30,23.10
2014,07,11,10,31,23.10
2014,07,11,10,32,23.10
2014,07,11,10,33,23.10
2014,07,11,10,34,23.10
2014,07,11,10,35,23.10
2014,07,11,10,36,23.10
2014,07,11,10,37,23.10
2014,07,11,10,38,23.20
2014,07,11,10,39,23.20
2014,07,11,10,40,23.30
2014,07,11,10,41,23.30
2014,07,11,10,42,23.30
2014,07,11,10,43,23.30
2014,07,11,10,44,23.40
2014,07,11,10,45,23.40
2014,07,11,10,46,23.50
2014,07,11,10,47,23.60
2014,07,11,10,48,23.60
2014,07,11,10,49,23.60
2014,07,11,10,50,23.60
2014,07,11,10,51,23.60
2014,07,11,10,52,23.50
2014,07,11,10,53,23.50
2014,07,11,10,54,23.50
2014,07,11,10,55,23.50
2014,07,11,10,56,23.50
2014,07,11,10,57,23.50
2014,07,11,10,58,23.50
2014,07,11,10,59,23.50
2014,07,11,11,00,23.60
2014,07,11,11,01,23.60
2014,07,11,11,02,23.60
2014,07,11,11,03,23.70
2014,07,11,11,04,23.70
2014,07,11,11,05,23.80
2014,07,11,11,06,23.90
2014,07,11,11,07,23.90
2014,07,11,11,08,24.00
2014,07,11,11,09,24.10
2014,07,11,11,10,24.20
2014,07,11,11,11,24.30
2014,07,11,11,12,24.40
2014,07,11,11,13,24.50
2014,07,11,11,14,24.60
2014,07,11,11,15,24.60
2014,07,11,11,16,24.60
2014,07,11,11,17,24.60
2014,07,11,11,18,24.60
2014,07,11,11,19,24.60
2014,07,11,11,20,24.60
2014,07,11,11,21,24.60
2014,07,11,11,22,24.60
2014,07,11,11,23,24.60
2014,07,11,11,24,24.60
2014,07,11,11,25,24.60
2014,07,11,11,26,24.70
2014,07,11,11,27,24.70
2014,07,11,11,28,24.80
2014,07,11,11,29,24.80
2014,07,11,11,30,24.80
2014,07,11,11,31,24.90
2014,07,11,11,32,24.90
2014,07,11,11,33,24.90
2014,07,11,11,34,25.00
2014,07,11,11,35,25.00
2014,07,11,11,36,25.10
2014,07,11,11,37,25.20
2014,07,11,11,38,25.30
2014,07,11,11,39,25.30
2014,07,11,11,40,25.40
2014,07,11,11,41,25.40
2014,07,11,11,42,25.40
2014,07,11,11,43,25.50
2014,07,11,11,44,25.50
2014,07,11,11,45,25.50
2014,07,11,11,46,25.60
2014,07,11,11,47,25.50
2014,07,11,11,48,25.50
2014,07,11,11,49,25.50
2014,07,11,11,50,25.50
2014,07,11,11,51,25.50
2014,07,11,11,52,25.50
2014,07,11,11,53,25.40
2014,07,11,11,54,25.40
2014,07,11,11,55,25.40
2014,07,11,11,56,25.40
2014,07,11,11,57,25.40
2014,07,11,11,58,25.40
2014,07,11,11,59,25.40
2014,07,11,12,00,25.50
2014,07,11,12,01,25.50
2014,07,11,12,02,25.60
2014,07,11,12,03,25.70
2014,07,11,12,04,25.70
2014,07,11,12,05,25.70
2014,07,11,12,06,25.70
2014,07,11,12,07,25.80
2014,07,11,12,08,25.90
2014,07,11,12,09,25.90
2014,07,11,12,10,26.00
2014,07,11,12,11,26.10
2014,07,11,12,12,26.10
2014,07,11,12,13,26.10
2014,07,11,12,14,26.00
2014,07,11,12,15,26.00
2014,07,11,12,16,26.00
2014,07,11,12,17,26.00
2014,07,11,12,18,26.10
2014,07,11,12,19,26.10
2014,07,11,12,20,26.10
2014,07,11,12,21,26.10
2014,07,11,12,22,26.10
2014,07,11,12,23,26.10
2014,07,11,12,24,26.20
2014,07,11,12,25,26.20
2014,07,11,12,26,26.30
2014,07,11,12,27,26.30
2014,07,11,12,28,26.40
2014,07,11,12,29,26.40
2014,07,11,12,30,26.40
2014,07,11,12,31,26.40
2014,07,11,12,32,26.40
2014,07,11,12,33,26.40
2014,07,11,12,34,26.50
2014,07,11,12,35,26.50
2014,07,11,12,36,26.60
2014,07,11,12,37,26.70
2014,07,11,12,38,26.70
2014,07,11,12,39,26.60
2014,07,11,12,40,26.50
2014,07,11,12,41,26.50
2014,07,11,12,42,26.40
2014,07,11,12,43,26.40
2014,07,11,12,44,26.30
2014,07,11,12,45,26.30
2014,07,11,12,46,26.40
2014,07,11,12,47,26.40
2014,07,11,12,48,26.50
2014,07,11,12,49,26.50
2014,07,11,12,50,26.60
2014,07,11,12,51,26.60
2014,07,11,12,52,26.60
2014,07,11,12,53,26.70
2014,07,11,12,54,26.70
2014,07,11,12,55,26.80
2014,07,11,12,56,26.80
2014,07,11,12,57,26.80
2014,07,11,12,58,26.90
2014,07,11,12,59,26.90
2014,07,11,13,00,26.90
2014,07,11,13,01,26.90
2014,07,11,13,02,26.90
2014,07,11,13,03,27.00
2014,07,11,13,04,27.00
2014,07,11,13,05,27.10
2014,07,11,13,06,27.20
2014,07,11,13,07,27.20
2014,07,11,13,08,27.20
2014,07,11,13,09,27.10
2014,07,11,13,10,27.00
2014,07,11,13,11,27.00
2014,07,11,13,12,26.90
2014,07,11,13,13,26.80
2014,07,11,13,14,26.80
2014,07,11,13,15,26.80
2014,07,11,13,16,26.80
2014,07,11,13,17,26.80
2014,07,11,13,18,26.80
2014,07,11,13,19,26.80
2014,07,11,13,20,26.80
2014,07,11,13,21,26.80
2014,07,11,13,22,26.80
2014,07,11,13,23,26.80
2014,07,11,13,24,26.90
2014,07,11,13,25,26.90
2014,07,11,13,26,26.90
2014,07,11,13,27,26.90
2014,07,11,13,28,26.90
2014,07,11,13,29,26.90
2014,07,11,13,30,27.00
2014,07,11,13,31,27.10
2014,07,11,13,32,27.10
2014,07,11,13,33,27.20
2014,07,11,13,34,27.20
2014,07,11,13,35,27.30
2014,07,11,13,36,27.30
2014,07,11,13,37,27.40
2014,07,11,13,38,27.40
2014,07,11,13,39,27.50
2014,07,11,13,40,27.50
2014,07,11,13,41,27.60
2014,07,11,13,42,27.70
2014,07,11,13,43,27.70
2014,07,11,13,44,27.70
2014,07,11,13,45,27.80
2014,07,11,13,46,27.80
2014,07,11,13,47,27.80
2014,07,11,13,48,27.80
2014,07,11,13,49,27.80
2014,07,11,13,50,27.90
2014,07,11,13,51,27.90
2014,07,11,13,52,27.90
2014,07,11,13,53,28.00
2014,07,11,13,54,28.00
2014,07,11,13,55,28.10
2014,07,11,13,56,28.10
2014,07,11,13,57,28.20
2014,07,11,13,58,28.20
2014,07,11,13,59,28.20
2014,07,11,14,00,28.30
2014,07,11,14,01,28.30
2014,07,11,14,02,28.30
2014,07,11,14,03,28.20
2014,07,11,14,04,28.20
2014,07,11,14,05,28.10
2014,07,11,14,06,28.10
2014,07,11,14,07,28.10
2014,07,11,14,08,28.00
2014,07,11,14,09,28.10
2014,07,11,14,10,28.10
2014,07,11,14,11,28.10
2014,07,11,14,12,28.20
2014,07,11,14,13,28.20
2014,07,11,14,14,28.20
2014,07,11,14,15,28.20
2014,07,11,14,16,28.20
2014,07,11,14,17,28.30
2014,07,11,14,18,28.30
2014,07,11,14,19,28.20
2014,07,11,14,20,28.20
2014,07,11,14,21,28.20
2014,07,11,14,22,28.20
2014,07,11,14,23,28.10
2014,07,11,14,24,28.00
2014,07,11,14,25,27.90
2014,07,11,14,26,27.90
2014,07,11,14,27,27.80
2014,07,11,14,28,27.70
2014,07,11,14,29,27.50
2014,07,11,14,30,27.40
2014,07,11,14,31,27.30
2014,07,11,14,32,27.30
2014,07,11,14,33,27.30
2014,07,11,14,34,27.30
2014,07,11,14,35,27.30
2014,07,11,14,36,27.30
2014,07,11,14,37,27.30
2014,07,11,14,38,27.30
2014,07,11,14,39,27.30
2014,07,11,14,40,27.30
2014,07,11,14,41,27.30
2014,07,11,14,42,27.40
2014,07,11,14,43,27.50
2014,07,11,14,44,27.60
2014,07,11,14,45,27.70
2014,07,11,14,46,27.70
2014,07,11,14,47,27.80
2014,07,11,14,48,27.90
2014,07,11,14,49,28.00
2014,07,11,14,50,28.10
2014,07,11,14,51,28.10
2014,07,11,14,52,28.10
2014,07,11,14,53,28.10
2014,07,11,14,54,28.00
2014,07,11,14,55,28.00
2014,07,11,14,56,28.00
2014,07,11,14,57,28.00
2014,07,11,14,58,28.00
2014,07,11,14,59,28.00
2014,07,11,15,00,27.90
2014,07,11,15,01,27.90
2014,07,11,15,02,27.90
2014,07,11,15,03,27.90
2014,07,11,15,04,27.90
2014,07,11,15,05,27.90
2014,07,11,15,06,27.80
2014,07,11,15,07,27.80
2014,07,11,15,08,27.80
2014,07,11,15,09,27.80
2014,07,11,15,10,27.90
2014,07,11,15,11,28.00
2014,07,11,15,12,28.00
2014,07,11,15,13,28.10
2014,07,11,15,14,28.20
2014,07,11,15,15,28.20
2014,07,11,15,16,28.30
2014,07,11,15,17,28.30
2014,07,11,15,18,28.30
2014,07,11,15,19,28.30
2014,07,11,15,20,28.30
2014,07,11,15,21,28.30
2014,07,11,15,22,28.30
2014,07,11,15,23,28.30
2014,07,11,15,24,28.30
2014,07,11,15,25,28.30
2014,07,11,15,26,28.30
2014,07,11,15,27,28.20
2014,07,11,15,28,28.20
2014,07,11,15,29,28.20
2014,07,11,15,30,28.20
2014,07,11,15,31,28.20
2014,07,11,15,32,28.20
2014,07,11,15,33,28.10
2014,07,11,15,34,28.10
2014,07,11,15,35,28.00
2014,07,11,15,36,28.00
2014,07,11,15,37,27.90
2014,07,11,15,38,27.90
2014,07,11,15,39,28.00
2014,07,11,15,40,28.00
2014,07,11,15,41,27.90
2014,07,11,15,42,27.80
2014,07,11,15,43,27.80
2014,07,11,15,44,27.70
2014,07,11,15,45,27.60
2014,07,11,15,46,27.50
2014,07,11,15,47,27.50
2014,07,11,15,48,27.40
2014,07,11,15,49,27.40
2014,07,11,15,50,27.40
2014,07,11,15,51,27.30
2014,07,11,15,52,27.30
2014,07,11,15,53,27.30
2014,07,11,15,54,27.30
2014,07,11,15,55,27.30
2014,07,11,15,56,27.20
2014,07,11,15,57,27.20
2014,07,11,15,58,27.20
2014,07,11,15,59,27.20
2014,07,11,16,00,27.20
2014,07,11,16,01,27.10
2014,07,11,16,02,27.10
2014,07,11,16,03,27.10
2014,07,11,16,04,27.00
2014,07,11,16,05,26.90
2014,07,11,16,06,26.90
2014,07,11,16,07,26.80
2014,07,11,16,08,26.80
2014,07,11,16,09,26.80
2014,07,11,16,10,26.80
2014,07,11,16,11,26.80
2014,07,11,16,12,26.80
2014,07,11,16,13,26.80
2014,07,11,16,14,26.90
2014,07,11,16,15,26.90
2014,07,11,16,16,27.00
2014,07,11,16,17,27.10
2014,07,11,16,18,27.10
2014,07,11,16,19,27.10
2014,07,11,16,20,27.20
2014,07,11,16,21,27.20
2014,07,11,16,22,27.20
2014,07,11,16,23,27.20
2014,07,11,16,24,27.20
2014,07,11,16,25,27.20
2014,07,11,16,26,27.20
2014,07,11,16,27,27.20
2014,07,11,16,28,27.20
2014,07,11,16,29,27.20
2014,07,11,16,30,27.30
2014,07,11,16,31,27.30
2014,07,11,16,32,27.40
2014,07,11,16,33,27.40
2014,07,11,16,34,27.50
2014,07,11,16,35,27.60
2014,07,11,16,36,27.70
2014,07,11,16,37,27.80
2014,07,11,16,38,27.90
2014,07,11,16,39,27.80
2014,07,11,16,40,27.80
2014,07,11,16,41,27.80
2014,07,11,16,42,27.70
2014,07,11,16,43,27.70
2014,07,11,16,44,27.70
2014,07,11,16,45,27.70
2014,07,11,16,46,27.70
2014,07,11,16,47,27.70
2014,07,11,16,48,27.80
2014,07,11,16,49,27.80
2014,07,11,16,50,27.80
2014,07,11,16,51,27.90
2014,07,11,16,52,27.90
2014,07,11,16,53,27.90
2014,07,11,16,54,27.90
2014,07,11,16,55,28.00
2014,07,11,16,56,28.00
2014,07,11,16,57,28.00
2014,07,11,16,58,28.10
2014,07,11,16,59,28.10
2014,07,11,17,00,28.20
2014,07,11,17,01,28.20
2014,07,11,17,02,28.20
2014,07,11,17,03,28.20
2014,07,11,17,04,28.30
2014,07,11,17,05,28.30
2014,07,11,17,06,28.30
2014,07,11,17,07,28.30
2014,07,11,17,08,28.30
2014,07,11,17,09,28.30
2014,07,11,17,10,28.30
2014,07,11,17,11,28.20
2014,07,11,17,12,28.10
2014,07,11,17,13,28.10
2014,07,11,17,14,28.00
2014,07,11,17,15,27.90
2014,07,11,17,16,27.80
2014,07,11,17,17,27.80
2014,07,11,17,18,27.70
2014,07,11,17,19,27.70